Welcome to the New NWS' Forecast!
Most changes are behind the scenes, but click here for differences you might notice.

Regional Weather Roundup (RWR)

Issued by National Weather Service (NWS)

                            
000
ASUS45 KPSR 230710
RWRAZ 

ARIZONA HOURLY REGIONAL WEATHER ROUNDUP
NATIONAL WEATHER SERVICE PHOENIX AZ
1200 AM MST TUE OCT 23 2018

NOTE: FAIR INDICATES FEW OR NO CLOUDS BELOW 12,000 FEET WITH NO
SIGNIFICANT WEATHER AND/OR OBSTRUCTIONS TO VISIBILITY.

AZZ001>003-036-230800-
NORTHWEST ARIZONA
  
CITY           SKY/WX    TMP DP  RH WIND       PRES   REMARKS
KINGMAN        MOCLDY    56  50  80 E7        30.01S                  
$$

AZZ004>008-015-016-018-230800-
NORTH CENTRAL ARIZONA
  
CITY           SKY/WX    TMP DP  RH WIND       PRES   REMARKS
GRAND CANYON   MOCLDY    38  38 100 NE3       30.17R                  
WILLIAMS       MOCLDY    43  41  93 SE7       30.14R                  
PRESCOTT       MOCLDY    49  44  83 S3        30.07S                  
FLAGSTAFF      MOCLDY    38  35  89 CALM      30.18S                  
PAYSON         CLOUDY    57  50  77 CALM      30.08S                  
PAGE           PTCLDY    53  51  93 CALM      30.10S                  
$$

AZZ009>014-017-230800-
NORTHEAST ARIZONA
  
CITY           SKY/WX    TMP DP  RH WIND       PRES   REMARKS
WINSLOW        CLOUDY    52  47  83 W3        30.10F                  
SAINT JOHNS    MOCLDY    49  42  77 CALM      30.13F                  
WINDOW ROCK    MOCLDY    47  42  83 CALM      30.21S                  
SHOW LOW       CLOUDY    50  45  81 CALM      30.16F                  
$$

AZZ540-542>544-546-548-230800-
GREATER PHOENIX AREA
  
CITY           SKY/WX    TMP DP  RH WIND       PRES   REMARKS
PHOENIX        CLOUDY    76  48  37 W3        29.82F                  
BUCKEYE        CLOUDY    66  54  63 N7        29.85S                  
LUKE AFB       CLOUDY    69  52  53 N7        29.83S                  
DEER VALLEY    CLOUDY    72  54  53 NE5       29.86S                  
SCOTTSDALE     CLOUDY    73  55  53 W3        29.86F                  
MESA-FALCON    CLOUDY    75  54  47 N8        29.84F                  
MESA-GATEWAY   PTCLDY    73  54  49 VRB3      29.85F                  
$$

AZZ539-553-230800-
SOUTHWEST MARICOPA COUNTY AND PINAL COUNTY
  
CITY           SKY/WX    TMP DP  RH WIND       PRES   REMARKS
CASA GRANDE    CLOUDY    74  51  44 CALM      29.86F                  
GILA BEND      CLOUDY    70  49  46 S6        29.83R                  
$$

AZZ503-504-507>509-230800-
SOUTHEAST ARIZONA
  
CITY           SKY/WX    TMP DP  RH WIND       PRES   REMARKS
TUCSON         CLOUDY    69  61  75 S3        29.94S                  
DAVIS-MONTHAN  CLOUDY    67  63  87 SE6       29.93S                  
NOGALES        CLOUDY    62  52  69 NE5       29.99S                  
SIERRA VISTA   MOCLDY    59  54  82 CALM      30.06S                  
DOUGLAS        CLOUDY    62  58  86 E6        30.03F                  
SAFFORD        CLOUDY    65  58  78 SE8       30.00R                  
$$

AZZ532-230800-
SOUTHWEST ARIZONA
  
CITY           SKY/WX    TMP DP  RH WIND       PRES   REMARKS
YUMA           CLOUDY    74  55  51 S5        29.81S                  
$$

CAZ041-043-047-048-061-525>527-560>570-230800-
SOUTHERN CALIFORNIA
  
CITY           SKY/WX    TMP DP  RH WIND       PRES   REMARKS
DOWNTOWN L.A.  PTCLDY    65  60  84 CALM      29.88F                  
L.A. AIRPORT   MOCLDY    65  60  84 S7        29.90R                  
SAN DIEGO      CLOUDY    63  58  83 NW3       29.90S                  
BURBANK        MOCLDY    63  59  87 NE3       29.89S                  
ONTARIO        MOCLDY    62  57  83 SW8       29.90F                  
RIVERSIDE      PTCLDY    62  57  83 CALM      29.90F                  
PALM SPRINGS   MOCLDY    76  51  41 NW6       29.85S                  
EL CENTRO NAS  CLOUDY    69  33  26 MISG      29.80F                  
IMPERIAL       CLOUDY    70  45  40 W6        29.78F                  
BLYTHE         MOCLDY    71  52  50 MISG      29.82S                  
NEEDLES        PTCLDY    75  52  44 N8        29.88R                  
$$

NVZ020-UTZ003-230800-
SOUTHERN NEVADA-UTAH
  
CITY           SKY/WX    TMP DP  RH WIND       PRES   REMARKS
LAS VEGAS      PTCLDY    64  49  57 W6        29.95S                  
SALT LAKE CITY MOCLDY    52  49  89 CALM      30.06F                  
$$

NMZ009-TXZ055-230800-
NEW MEXICO-WEST TEXAS
  
CITY           SKY/WX    TMP DP  RH WIND       PRES   REMARKS
ALBUQUERQUE    MOCLDY    58  46  64 E9        30.19R                  
EL PASO        MOCLDY    61  53  75 E5        30.10S                  
$$


........................KEY........................
SKY/WX - SKY CONDITION/WEATHER
TMP    - TEMPERATURE IN FAHRENHEIT
DP     - DEW POINT IN FAHRENHEIT
RH     - RELATIVE HUMIDITY IN PERCENT
WIND   - DIRECTION AND SPEED IN MILES PER HOUR (MPH)
VRB    - VARIABLE WIND DIRECTION
PRES   - MEAN SEA LEVEL PRESSURE IN INCHES OF MERCURY
         F - FALLING PRESSURE   R - RISING PRESSURE
         S - STEADY PRESSURE
VSB    - VISIBILITY IN MILES
HX     - HEAT INDEX IN FAHRENHEIT
WCI    - WIND CHILL INDEX IN FAHRENHEIT
TC     - TEMPERATURE IN CELSIUS WHICH IS ALSO KNOWN AS
         TEMPERATURE IN CENTIGRADE
AFB    - AIR FORCE BASE
         LUKE AFB IS LUKE AIR FORCE BASE
         DAVIS-MONTHAN IS DAVIS-MONTHAN AIR FORCE BASE
NAS    - NAVAL AIR STATION
         EL CENTRO NAS IS EL CENTRO NAVAL AIR STATION
N/A    - NOT AVAILABLE